Погода в Волоконовке

Россия / Белгородская область     50˚29′09″N   37˚50′27″E
темп.,
°C
ветер,
м/с
пор.,
м/с
влажн.,
%
обл.,
%
осадки,
мм/ч
давл.,
гПа
погр.,
м
17 января, вс
вс1700:00−16˚з499514 0.0 1015233
03:00−18˚з35957 0.0 101697
06:00−19˚з35950 0.0 101586
09:00−19˚зсз34950 0.0 101686
12:00−16˚ссз24910 0.0 1016253
15:00−16˚сз128929 0.0 1016248
18:00−17˚с2294100 0.0 101657
21:00−18˚св2295100 0.0 101760
18 января, пн
пн1800:00−17˚ссв2494100 0.0 1017173
03:00−17˚св3593100 0.0 1017211
06:00−17˚св4693100 0.0 1017230
09:00−17˚св3495100 0.4 1018230
12:00−15˚св3393100 0.6 1018243
15:00−14˚св2292100 0.8 1017248
18:00−16˚ссв229695 0.1 101836
21:00−17˚всв119793 0.2 101824
19 января, вт
вт1900:00−17˚всв119699 0.1 101820
03:00−17˚ссв1197100 0.3 101823
06:00−17˚с1197100 0.3 101821
09:00−16˚ссз1196100 0.4 101857
12:00−15˚зсз2289100 0.1 1018360
15:00−15˚зсз3490100 0.1 1018463
18:00−17˚зсз239699 0.1 101938
21:00−19˚сз229795 0.1 102020
20 января, ср
ср2000:00−20˚зсз229697 0.0 102122
03:00−21˚зсз239567 0.0 102229
06:00−21˚зсз23960 0.0 102331
09:00−21˚зсз23950 0.0 102529
12:00−16˚зсз34930 0.0 1026236
15:00−15˚зсз349328 0.0 1026261
18:00−18˚зсз229628 0.0 102820
21:00−18˚з129714 0.0 102820
21 января, чт
чт2100:00−18˚зюз12970 0.0 102920
03:00−18˚юз23960 0.0 103020
06:00−18˚ююз23950 0.0 102922
09:00−17˚ю34930 0.0 103061
12:00−13˚ююз47880 0.0 1029248
15:00−11˚ю47890 0.0 1027253
18:00−12˚ю49960 0.0 1027188
21:00−8˚ююз5109447 0.1 1026323